sat.trackr.live / text

‹ back to catalog

STARLINK-4524

NORAD 53396 · 2022-097J

PAYLOAD ACTIVE UNKNOWN

§ Identity

Operator
Country
US
Launch date
2022-08-10
Launch site
AFETR
Launch vehicle
Mass (kg)
RCS (m²)

Purposes: comms

External: N2YO · Heavens-Above · Gunter

§ Orbital elements

Epoch: 2026-09-19T21:29:48.604416Z

Period
93.79 min
Inclination
53.1617°
Eccentricity
0.0001636
Mean motion
15.35388794 rev/d
Perigee alt
458.6 km
Apogee alt
460.9 km
Semi-major
6,837.9 km
B*
3.2153e-5
RAAN
325.2607°
Arg perigee
111.1476°
Mean anomaly
248.9702°
Rev number
22,792

§ Raw data

STARLINK-45241 53396U 22097J   26262.89570144  .00000741  00000+0  32153-4 0  99912 53396  53.1617 325.2607 0001636 111.1476 248.9702 15.35388794227920

JSON: /api/v1/satellites/53396 · /tle

For live sub-satellite position, see the globe view (requires WebGL).

§ Visibility from observer

Set your observer location to see the next 7 days of passes ≥ 10°. The values pass through the URL so the page stays shareable.

No JS? Fill the form by hand. The geolocation button needs JavaScript.